Location: Sundre
(51.7972°N, 114.6405°W)
Time: 08:17:41
(UTC-07:00)

TIGRISAT - Pass Details

Date: 03 February 2020
Orbit: 604 x 690 km, 97.7° (Epoch: 17 February)

Event Time Altitude Azimuth Distance (km) Brightness Sun altitude
Rises 06:48:29 0° 121° (ESE) 2,876 ? -13.5°
Reaches altitude 10° 06:51:12 10° 102° (ESE) 1,966 ? -13.1°
Maximum altitude 06:54:07 18° 59° (ENE) 1,494 ? -12.7°
Drops below altitude 10° 06:57:01 10° 16° (NNE) 1,964 ? -12.2°
Sets 06:59:44 0° 358° (N) 2,873 ? -11.8°
